Time,TemperatureF,DewpointF,PressureIn,WindDirection,WindDirectionDegrees,WindSpeedMPH,WindSpeedGustMPH,Humidity,HourlyPrecipIn,Conditions,Clouds,dailyrainin,SoftwareType,DateUTC
2014-01-17 00:01:00,36.2,22.8,30.02,SW,224,1.0,1.0,58,0.00,,,0.00,Wunderground v.1.15,2014-01-17 05:01:00,
2014-01-17 00:02:00,36.2,22.8,30.02,SW,214,1.0,1.0,58,0.00,,,0.00,Wunderground v.1.15,2014-01-17 05:02:00,
2014-01-17 00:03:00,36.2,22.8,30.02,SSW,213,0.0,1.0,58,0.00,,,0.00,Wunderground v.1.15,2014-01-17 05:03:00,
2014-01-17 00:05:00,36.1,22.7,30.02,SW,222,1.0,2.0,58,0.00,,,0.00,Wunderground v.1.15,2014-01-17 05:05:00,
2014-01-17 00:08:00,36.1,22.7,30.01,SW,229,1.0,2.0,58,0.00,,,0.00,Wunderground v.1.15,2014-01-17 05:08:00,
2014-01-17 00:14:00,36.1,22.3,30.01,SW,228,0.0,0.0,57,0.00,,,0.00,Wunderground v.1.15,2014-01-17 05:14:00,
2014-01-17 00:15:00,36.0,22.6,30.01,SW,228,0.0,0.0,58,0.00,,,0.00,Wunderground v.1.15,2014-01-17 05:15:00,
2014-01-17 00:20:00,35.7,22.4,30.01,South,185,0.0,0.0,58,0.00,,,0.00,Wunderground v.1.15,2014-01-17 05:20:00,
2014-01-17 00:26:00,35.6,22.7,30.01,South,185,0.0,0.0,59,0.00,,,0.00,Wunderground v.1.15,2014-01-17 05:26:00,
2014-01-17 00:32:00,35.3,22.4,30.01,South,185,0.0,0.0,59,0.00,,,0.00,Wunderground v.1.15,2014-01-17 05:32:00,
2014-01-17 00:38:00,34.9,22.8,30.01,SSW,200,0.0,0.0,61,0.00,,,0.00,Wunderground v.1.15,2014-01-17 05:38:00,
2014-01-17 00:43:00,34.6,22.1,30.00,South,189,0.0,0.0,60,0.00,,,0.00,Wunderground v.1.15,2014-01-17 05:43:00,
2014-01-17 00:49:00,34.5,22.0,30.00,South,184,0.0,1.0,60,0.00,,,0.00,Wunderground v.1.15,2014-01-17 05:49:00,
2014-01-17 00:54:00,34.3,22.6,30.00,SSE,164,0.0,0.0,62,0.00,,,0.00,Wunderground v.1.15,2014-01-17 05:54:00,
2014-01-17 01:00:00,34.0,22.7,30.00,SSE,163,0.0,0.0,63,0.00,,,0.00,Wunderground v.1.15,2014-01-17 06:00:00,
2014-01-17 01:06:00,33.5,22.2,30.00,SSE,162,0.0,0.0,63,0.00,,,0.00,Wunderground v.1.15,2014-01-17 06:06:00,
2014-01-17 01:11:00,33.3,22.4,30.00,SSE,163,0.0,0.0,64,0.00,,,0.00,Wunderground v.1.15,2014-01-17 06:11:00,
2014-01-17 01:16:00,33.1,22.6,30.00,SSE,163,0.0,1.0,65,0.00,,,0.00,Wunderground v.1.15,2014-01-17 06:16:00,
2014-01-17 01:22:00,32.9,22.4,30.00,SSE,163,0.0,0.0,65,0.00,,,0.00,Wunderground v.1.15,2014-01-17 06:22:00,
2014-01-17 01:27:00,32.6,22.8,30.00,SSE,157,0.0,1.0,67,0.00,,,0.00,Wunderground v.1.15,2014-01-17 06:27:00,
2014-01-17 01:33:00,32.4,23.0,30.00,SSE,164,0.0,0.0,68,0.00,,,0.00,Wunderground v.1.15,2014-01-17 06:33:00,
2014-01-17 01:38:00,32.2,23.5,30.00,SSE,164,0.0,0.0,70,0.00,,,0.00,Wunderground v.1.15,2014-01-17 06:38:00,
2014-01-17 01:44:00,31.5,22.8,30.00,SSE,164,0.0,0.0,70,0.00,,,0.00,Wunderground v.1.15,2014-01-17 06:44:00,
2014-01-17 01:47:00,31.4,22.7,30.00,SSE,164,0.0,0.0,70,0.00,,,0.00,Wunderground v.1.15,2014-01-17 06:47:00,
2014-01-17 01:52:00,31.3,22.3,30.00,SSE,164,0.0,0.0,69,0.00,,,0.00,Wunderground v.1.15,2014-01-17 06:52:00,
2014-01-17 01:58:00,31.2,22.2,30.00,SSE,149,0.0,0.0,69,0.00,,,0.00,Wunderground v.1.15,2014-01-17 06:58:00,
2014-01-17 02:04:00,31.2,21.9,30.00,SSE,149,0.0,0.0,68,0.00,,,0.00,Wunderground v.1.15,2014-01-17 07:04:00,
2014-01-17 02:09:00,31.2,21.9,30.00,SSE,149,0.0,0.0,68,0.00,,,0.00,Wunderground v.1.15,2014-01-17 07:09:00,
2014-01-17 02:14:00,31.3,21.6,29.99,SSE,150,0.0,0.0,67,0.00,,,0.00,Wunderground v.1.15,2014-01-17 07:14:00,
2014-01-17 02:20:00,31.6,21.5,29.99,South,186,0.0,0.0,66,0.00,,,0.00,Wunderground v.1.15,2014-01-17 07:20:00,
2014-01-17 02:26:00,31.8,21.7,29.99,South,187,1.0,1.0,66,0.00,,,0.00,Wunderground v.1.15,2014-01-17 07:26:00,
2014-01-17 02:32:00,31.9,21.5,29.99,South,186,0.0,0.0,65,0.00,,,0.00,Wunderground v.1.15,2014-01-17 07:32:00,
2014-01-17 02:38:00,32.0,21.6,29.99,South,186,0.0,0.0,65,0.00,,,0.00,Wunderground v.1.15,2014-01-17 07:38:00,
2014-01-17 02:43:00,31.8,21.4,29.99,South,185,0.0,0.0,65,0.00,,,0.00,Wunderground v.1.15,2014-01-17 07:43:00,
2014-01-17 02:49:00,31.8,21.7,29.99,South,186,0.0,0.0,66,0.00,,,0.00,Wunderground v.1.15,2014-01-17 07:49:00,
2014-01-17 02:55:00,31.6,22.2,29.99,South,186,0.0,0.0,68,0.00,,,0.00,Wunderground v.1.15,2014-01-17 07:55:00,
2014-01-17 03:00:00,31.2,22.2,29.99,South,186,0.0,0.0,69,0.00,,,0.00,Wunderground v.1.15,2014-01-17 08:00:00,
2014-01-17 03:06:00,30.7,21.7,29.99,South,187,0.0,0.0,69,0.00,,,0.00,Wunderground v.1.15,2014-01-17 08:06:00,
2014-01-17 03:12:00,30.6,21.6,29.99,South,180,0.0,1.0,69,0.00,,,0.00,Wunderground v.1.15,2014-01-17 08:12:00,
2014-01-17 03:17:00,30.6,21.6,29.99,South,180,0.0,1.0,69,0.00,,,0.00,Wunderground v.1.15,2014-01-17 08:17:00,
2014-01-17 03:23:00,30.9,21.6,29.99,South,186,1.0,3.0,68,0.00,,,0.00,Wunderground v.1.15,2014-01-17 08:23:00,
2014-01-17 03:29:00,31.3,21.3,29.99,SSW,198,1.0,3.0,66,0.00,,,0.00,Wunderground v.1.15,2014-01-17 08:29:00,
2014-01-17 03:34:00,31.6,21.2,29.98,SSW,202,2.0,2.0,65,0.00,,,0.00,Wunderground v.1.15,2014-01-17 08:34:00,
2014-01-17 03:39:00,31.9,21.5,29.98,WSW,244,1.0,4.0,65,0.00,,,0.00,Wunderground v.1.15,2014-01-17 08:39:00,
2014-01-17 03:45:00,32.3,21.5,29.98,NW,308,2.0,6.0,64,0.00,,,0.00,Wunderground v.1.15,2014-01-17 08:45:00,
2014-01-17 03:50:00,32.5,21.3,29.98,SW,223,2.0,2.0,63,0.00,,,0.00,Wunderground v.1.15,2014-01-17 08:50:00,
2014-01-17 03:55:00,32.6,21.4,29.98,SSW,207,1.0,2.0,63,0.00,,,0.00,Wunderground v.1.15,2014-01-17 08:55:00,
2014-01-17 04:00:00,32.8,21.2,29.98,South,186,1.0,1.0,62,0.00,,,0.00,Wunderground v.1.15,2014-01-17 09:00:00,
2014-01-17 04:05:00,32.9,21.3,29.99,South,184,1.0,2.0,62,0.00,,,0.00,Wunderground v.1.15,2014-01-17 09:05:00,
2014-01-17 04:11:00,32.9,21.3,29.99,SSW,213,0.0,0.0,62,0.00,,,0.00,Wunderground v.1.15,2014-01-17 09:11:00,
2014-01-17 04:17:00,32.9,20.9,29.99,SSW,207,0.0,0.0,61,0.00,,,0.00,Wunderground v.1.15,2014-01-17 09:17:00,
2014-01-17 04:23:00,32.8,20.8,29.99,South,189,1.0,1.0,61,0.00,,,0.00,Wunderground v.1.15,2014-01-17 09:23:00,
2014-01-17 04:29:00,32.9,20.9,29.99,South,186,1.0,1.0,61,0.00,,,0.00,Wunderground v.1.15,2014-01-17 09:29:00,
2014-01-17 04:34:00,32.8,21.2,29.99,South,184,0.0,0.0,62,0.00,,,0.00,Wunderground v.1.15,2014-01-17 09:34:00,
2014-01-17 04:40:00,32.4,21.2,29.99,South,186,0.0,0.0,63,0.00,,,0.00,Wunderground v.1.15,2014-01-17 09:40:00,
2014-01-17 04:46:00,32.1,21.3,29.98,SSE,155,0.0,0.0,64,0.00,,,0.00,Wunderground v.1.15,2014-01-17 09:46:00,
2014-01-17 04:52:00,32.0,21.2,29.98,South,179,0.0,1.0,64,0.00,,,0.00,Wunderground v.1.15,2014-01-17 09:52:00,
2014-01-17 04:57:00,31.9,21.5,29.97,SSE,150,0.0,2.0,65,0.00,,,0.00,Wunderground v.1.15,2014-01-17 09:57:00,
2014-01-17 05:03:00,31.6,21.2,29.97,SSE,150,0.0,0.0,65,0.00,,,0.00,Wunderground v.1.15,2014-01-17 10:03:00,
2014-01-17 05:09:00,31.4,21.0,29.97,SSE,150,0.0,0.0,65,0.00,,,0.00,Wunderground v.1.15,2014-01-17 10:09:00,
2014-01-17 05:14:00,31.1,21.1,29.98,SSE,150,0.0,0.0,66,0.00,,,0.00,Wunderground v.1.15,2014-01-17 10:14:00,
2014-01-17 05:20:00,30.8,20.8,29.97,SSE,150,0.0,0.0,66,0.00,,,0.00,Wunderground v.1.15,2014-01-17 10:20:00,
2014-01-17 05:25:00,30.7,21.0,29.97,SSE,150,0.0,0.0,67,0.00,,,0.00,Wunderground v.1.15,2014-01-17 10:25:00,
2014-01-17 05:31:00,30.6,20.9,29.97,SSE,150,0.0,0.0,67,0.00,,,0.00,Wunderground v.1.15,2014-01-17 10:31:00,
2014-01-17 05:36:00,30.6,21.3,29.97,SSE,148,0.0,1.0,68,0.00,,,0.00,Wunderground v.1.15,2014-01-17 10:36:00,
2014-01-17 05:42:00,30.5,21.2,29.96,SSE,148,0.0,0.0,68,0.00,,,0.00,Wunderground v.1.15,2014-01-17 10:42:00,
2014-01-17 05:47:00,30.4,20.7,29.96,SSE,148,0.0,0.0,67,0.00,,,0.00,Wunderground v.1.15,2014-01-17 10:47:00,
2014-01-17 05:52:00,30.4,21.1,29.96,SSE,148,0.0,0.0,68,0.00,,,0.00,Wunderground v.1.15,2014-01-17 10:52:00,
2014-01-17 05:58:00,30.4,21.1,29.96,SSE,148,0.0,0.0,68,0.00,,,0.00,Wunderground v.1.15,2014-01-17 10:58:00,
2014-01-17 06:04:00,30.3,20.6,29.97,SSE,153,0.0,0.0,67,0.00,,,0.00,Wunderground v.1.15,2014-01-17 11:04:00,
2014-01-17 06:09:00,30.3,21.0,29.97,SSW,211,0.0,0.0,68,0.00,,,0.00,Wunderground v.1.15,2014-01-17 11:09:00,
2014-01-17 06:14:00,30.1,21.5,29.97,SSW,211,0.0,0.0,70,0.00,,,0.00,Wunderground v.1.15,2014-01-17 11:14:00,
2014-01-17 06:20:00,29.8,21.5,29.98,SSW,211,0.0,0.0,71,0.00,,,0.00,Wunderground v.1.15,2014-01-17 11:20:00,
2014-01-17 06:26:00,29.6,20.7,29.98,South,178,0.0,0.0,69,0.00,,,0.00,Wunderground v.1.15,2014-01-17 11:26:00,
2014-01-17 06:32:00,29.9,20.6,29.98,South,184,0.0,1.0,68,0.00,,,0.00,Wunderground v.1.15,2014-01-17 11:32:00,
2014-01-17 06:38:00,30.7,20.7,29.98,South,171,1.0,2.0,66,0.00,,,0.00,Wunderground v.1.15,2014-01-17 11:38:00,
2014-01-17 06:44:00,31.5,21.1,29.98,SSW,202,2.0,3.0,65,0.00,,,0.00,Wunderground v.1.15,2014-01-17 11:44:00,
2014-01-17 06:50:00,31.8,21.0,29.98,South,185,1.0,1.0,64,0.00,,,0.00,Wunderground v.1.15,2014-01-17 11:50:00,
2014-01-17 06:56:00,32.0,20.8,29.98,South,188,1.0,2.0,63,0.00,,,0.00,Wunderground v.1.15,2014-01-17 11:56:00,
2014-01-17 07:01:00,32.0,20.8,29.97,SSW,212,1.0,4.0,63,0.00,,,0.00,Wunderground v.1.15,2014-01-17 12:01:00,
2014-01-17 07:07:00,32.0,21.2,29.98,South,173,0.0,4.0,64,0.00,,,0.00,Wunderground v.1.15,2014-01-17 12:07:00,
2014-01-17 07:12:00,32.0,20.8,29.98,South,188,1.0,2.0,63,0.00,,,0.00,Wunderground v.1.15,2014-01-17 12:12:00,
2014-01-17 07:18:00,32.3,21.1,29.99,SSE,168,1.0,3.0,63,0.00,,,0.00,Wunderground v.1.15,2014-01-17 12:18:00,
2014-01-17 07:24:00,32.4,20.8,29.99,SSW,204,1.0,2.0,62,0.00,,,0.00,Wunderground v.1.15,2014-01-17 12:24:00,
2014-01-17 07:29:00,32.5,21.3,29.99,SSW,207,1.0,2.0,63,0.00,,,0.00,Wunderground v.1.15,2014-01-17 12:29:00,
2014-01-17 07:34:00,32.4,21.2,29.99,SSW,208,1.0,1.0,63,0.00,,,0.00,Wunderground v.1.15,2014-01-17 12:34:00,
2014-01-17 07:40:00,32.4,21.2,29.99,WSW,242,0.0,0.0,63,0.00,,,0.00,Wunderground v.1.15,2014-01-17 12:40:00,
2014-01-17 07:46:00,32.4,21.2,29.99,WSW,242,0.0,0.0,63,0.00,,,0.00,Wunderground v.1.15,2014-01-17 12:46:00,
2014-01-17 07:51:00,32.3,21.1,29.99,WSW,237,0.0,1.0,63,0.00,,,0.00,Wunderground v.1.15,2014-01-17 12:51:00,
2014-01-17 07:57:00,32.4,21.2,29.99,SSE,155,0.0,3.0,63,0.00,,,0.00,Wunderground v.1.15,2014-01-17 12:57:00,
2014-01-17 08:02:00,32.5,21.7,29.99,SE,136,0.0,0.0,64,0.00,,,0.00,Wunderground v.1.15,2014-01-17 13:02:00,
2014-01-17 08:07:00,32.5,21.7,29.99,SSW,201,0.0,0.0,64,0.00,,,0.00,Wunderground v.1.15,2014-01-17 13:07:00,
2014-01-17 08:13:00,32.7,21.9,29.99,South,182,0.0,1.0,64,0.00,,,0.00,Wunderground v.1.15,2014-01-17 13:13:00,
2014-01-17 08:18:00,32.8,22.0,29.99,South,182,0.0,1.0,64,0.00,,,0.00,Wunderground v.1.15,2014-01-17 13:18:00,
2014-01-17 08:24:00,33.3,22.4,29.99,SSE,159,0.0,0.0,64,0.00,,,0.00,Wunderground v.1.15,2014-01-17 13:24:00,
2014-01-17 08:30:00,33.9,23.0,29.99,SSE,157,0.0,0.0,64,0.00,,,0.00,Wunderground v.1.15,2014-01-17 13:30:00,
2014-01-17 08:35:00,34.7,23.0,29.99,SSE,160,0.0,1.0,62,0.00,,,0.00,Wunderground v.1.15,2014-01-17 13:35:00,
2014-01-17 08:41:00,35.7,23.2,29.99,South,169,0.0,0.0,60,0.00,,,0.00,Wunderground v.1.15,2014-01-17 13:41:00,
2014-01-17 08:47:00,36.4,23.0,29.99,West,277,1.0,2.0,58,0.00,,,0.00,Wunderground v.1.15,2014-01-17 13:47:00,
2014-01-17 08:53:00,37.0,24.0,29.99,SW,223,1.0,2.0,59,0.00,,,0.00,Wunderground v.1.15,2014-01-17 13:53:00,
2014-01-17 08:59:00,37.7,23.4,30.00,SSW,196,1.0,2.0,56,0.00,,,0.00,Wunderground v.1.15,2014-01-17 13:59:00,
2014-01-17 09:05:00,38.0,23.7,30.00,West,270,1.0,4.0,56,0.00,,,0.00,Wunderground v.1.15,2014-01-17 14:05:00,
2014-01-17 09:10:00,38.5,23.7,30.00,West,269,1.0,1.0,55,0.00,,,0.00,Wunderground v.1.15,2014-01-17 14:10:00,
2014-01-17 09:16:00,38.9,24.1,30.00,SSW,198,1.0,2.0,55,0.00,,,0.00,Wunderground v.1.15,2014-01-17 14:16:00,
2014-01-17 09:22:00,39.3,24.0,30.00,WNW,289,2.0,2.0,54,0.00,,,0.00,Wunderground v.1.15,2014-01-17 14:22:00,
2014-01-17 09:27:00,39.5,24.2,30.00,SW,225,2.0,4.0,54,0.00,,,0.00,Wunderground v.1.15,2014-01-17 14:27:00,
2014-01-17 09:33:00,39.9,24.6,30.00,SW,229,2.0,2.0,54,0.00,,,0.00,Wunderground v.1.15,2014-01-17 14:33:00,
2014-01-17 09:38:00,40.0,23.8,30.00,West,261,2.0,3.0,52,0.00,,,0.00,Wunderground v.1.15,2014-01-17 14:38:00,
2014-01-17 09:44:00,40.2,24.0,30.00,South,186,2.0,4.0,52,0.00,,,0.00,Wunderground v.1.15,2014-01-17 14:44:00,
2014-01-17 09:49:00,40.8,24.5,30.00,ENE,78,2.0,4.0,52,0.00,,,0.00,Wunderground v.1.15,2014-01-17 14:49:00,
2014-01-17 09:54:00,41.3,25.0,30.00,South,189,1.0,4.0,52,0.00,,,0.00,Wunderground v.1.15,2014-01-17 14:54:00,
2014-01-17 10:00:00,41.8,25.0,30.00,SW,232,1.0,2.0,51,0.00,,,0.00,Wunderground v.1.15,2014-01-17 15:00:00,
2014-01-17 10:06:00,42.0,24.7,29.99,SW,222,2.0,6.0,50,0.00,,,0.00,Wunderground v.1.15,2014-01-17 15:06:00,
2014-01-17 10:12:00,42.2,24.4,30.00,West,270,2.0,2.0,49,0.00,,,0.00,Wunderground v.1.15,2014-01-17 15:12:00,
2014-01-17 10:17:00,42.7,25.8,30.00,NW,323,2.0,4.0,51,0.00,,,0.00,Wunderground v.1.15,2014-01-17 15:17:00,
2014-01-17 10:23:00,43.3,25.9,30.00,South,184,2.0,4.0,50,0.00,,,0.00,Wunderground v.1.15,2014-01-17 15:23:00,
2014-01-17 10:29:00,43.4,25.5,30.00,SSW,192,3.0,7.0,49,0.00,,,0.00,Wunderground v.1.15,2014-01-17 15:29:00,
2014-01-17 10:35:00,43.7,25.3,30.00,WSW,252,3.0,4.0,48,0.00,,,0.00,Wunderground v.1.15,2014-01-17 15:35:00,
2014-01-17 10:40:00,44.2,26.7,30.00,West,267,2.0,2.0,50,0.00,,,0.00,Wunderground v.1.15,2014-01-17 15:40:00,
2014-01-17 10:45:00,44.6,26.1,30.00,West,260,2.0,6.0,48,0.00,,,0.00,Wunderground v.1.15,2014-01-17 15:45:00,
2014-01-17 10:51:00,44.6,26.1,30.00,West,275,3.0,3.0,48,0.00,,,0.00,Wunderground v.1.15,2014-01-17 15:51:00,
2014-01-17 10:56:00,44.9,26.4,30.00,SW,225,3.0,4.0,48,0.00,,,0.00,Wunderground v.1.15,2014-01-17 15:56:00,
2014-01-17 11:01:00,45.1,26.1,29.99,NW,307,2.0,2.0,47,0.00,,,0.00,Wunderground v.1.15,2014-01-17 16:01:00,
2014-01-17 11:07:00,45.4,26.3,29.99,WNW,289,2.0,3.0,47,0.00,,,0.00,Wunderground v.1.15,2014-01-17 16:07:00,
2014-01-17 11:13:00,46.1,27.0,29.98,West,266,2.0,3.0,47,0.00,,,0.00,Wunderground v.1.15,2014-01-17 16:13:00,
2014-01-17 11:19:00,46.6,26.9,29.98,WSW,246,2.0,5.0,46,0.00,,,0.00,Wunderground v.1.15,2014-01-17 16:19:00,
2014-01-17 11:24:00,46.6,27.4,29.98,WNW,283,2.0,5.0,47,0.00,,,0.00,Wunderground v.1.15,2014-01-17 16:24:00,
2014-01-17 11:30:00,47.0,27.3,29.97,SW,220,2.0,2.0,46,0.00,,,0.00,Wunderground v.1.15,2014-01-17 16:30:00,
2014-01-17 11:35:00,47.4,28.2,29.97,SSW,197,2.0,5.0,47,0.00,,,0.00,Wunderground v.1.15,2014-01-17 16:35:00,
2014-01-17 11:41:00,48.1,28.8,29.96,South,169,2.0,2.0,47,0.00,,,0.00,Wunderground v.1.15,2014-01-17 16:41:00,
2014-01-17 11:47:00,48.1,27.7,29.96,South,180,2.0,4.0,45,0.00,,,0.00,Wunderground v.1.15,2014-01-17 16:47:00,
2014-01-17 11:53:00,48.0,28.2,29.96,South,180,2.0,3.0,46,0.00,,,0.00,Wunderground v.1.15,2014-01-17 16:53:00,
2014-01-17 11:59:00,48.3,28.5,29.95,WNW,286,2.0,3.0,46,0.00,,,0.00,Wunderground v.1.15,2014-01-17 16:59:00,
2014-01-17 12:05:00,48.6,28.7,29.95,South,178,2.0,5.0,46,0.00,,,0.00,Wunderground v.1.15,2014-01-17 17:05:00,
2014-01-17 12:10:00,48.6,28.7,29.94,SW,234,2.0,2.0,46,0.00,,,0.00,Wunderground v.1.15,2014-01-17 17:10:00,
2014-01-17 12:16:00,49.1,29.2,29.94,WNW,284,2.0,3.0,46,0.00,,,0.00,Wunderground v.1.15,2014-01-17 17:16:00,
2014-01-17 12:22:00,49.5,30.1,29.93,SSW,192,2.0,2.0,47,0.00,,,0.00,Wunderground v.1.15,2014-01-17 17:22:00,
2014-01-17 12:27:00,49.8,29.8,29.93,SSE,150,2.0,4.0,46,0.00,,,0.00,Wunderground v.1.15,2014-01-17 17:27:00,
2014-01-17 12:33:00,50.2,30.2,29.93,WSW,238,2.0,5.0,46,0.00,,,0.00,Wunderground v.1.15,2014-01-17 17:33:00,
2014-01-17 12:39:00,50.1,30.1,29.92,WNW,303,3.0,6.0,46,0.00,,,0.00,Wunderground v.1.15,2014-01-17 17:39:00,
2014-01-17 12:45:00,50.4,30.4,29.91,South,189,3.0,4.0,46,0.00,,,0.00,Wunderground v.1.15,2014-01-17 17:45:00,
2014-01-17 12:50:00,50.8,31.8,29.91,SW,230,3.0,3.0,48,0.00,,,0.00,Wunderground v.1.15,2014-01-17 17:50:00,
2014-01-17 12:56:00,51.5,30.8,29.90,SW,233,3.0,6.0,45,0.00,,,0.00,Wunderground v.1.15,2014-01-17 17:56:00,
2014-01-17 13:02:00,51.5,31.4,29.90,SW,217,3.0,5.0,46,0.00,,,0.00,Wunderground v.1.15,2014-01-17 18:02:00,
2014-01-17 13:07:00,51.5,31.4,29.89,SW,220,4.0,5.0,46,0.00,,,0.00,Wunderground v.1.15,2014-01-17 18:07:00,
2014-01-17 13:12:00,52.0,32.4,29.89,SW,234,3.0,4.0,47,0.00,,,0.00,Wunderground v.1.15,2014-01-17 18:12:00,
2014-01-17 13:18:00,52.8,32.6,29.89,NW,311,3.0,9.0,46,0.00,,,0.00,Wunderground v.1.15,2014-01-17 18:18:00,
2014-01-17 13:23:00,52.7,32.5,29.89,SSW,196,4.0,9.0,46,0.00,,,0.00,Wunderground v.1.15,2014-01-17 18:23:00,
2014-01-17 13:29:00,52.6,32.4,29.88,West,264,4.0,9.0,46,0.00,,,0.00,Wunderground v.1.15,2014-01-17 18:29:00,
2014-01-17 13:34:00,52.7,31.9,29.88,South,186,3.0,4.0,45,0.00,,,0.00,Wunderground v.1.15,2014-01-17 18:34:00,
2014-01-17 13:40:00,52.4,31.7,29.88,West,267,4.0,4.0,45,0.00,,,0.00,Wunderground v.1.15,2014-01-17 18:40:00,
2014-01-17 13:46:00,52.6,32.9,29.88,WSW,239,3.0,4.0,47,0.00,,,0.00,Wunderground v.1.15,2014-01-17 18:46:00,
2014-01-17 13:52:00,52.8,32.6,29.87,West,275,4.0,7.0,46,0.00,,,0.00,Wunderground v.1.15,2014-01-17 18:52:00,
2014-01-17 13:57:00,52.7,31.4,29.87,SSW,211,4.0,7.0,44,0.00,,,0.00,Wunderground v.1.15,2014-01-17 18:57:00,
2014-01-17 14:03:00,52.5,32.3,29.87,SSW,200,4.0,4.0,46,0.00,,,0.00,Wunderground v.1.15,2014-01-17 19:03:00,
2014-01-17 14:08:00,52.8,32.0,29.87,West,268,4.0,10.0,45,0.00,,,0.00,Wunderground v.1.15,2014-01-17 19:08:00,
2014-01-17 14:14:00,52.7,31.4,29.86,SSW,192,4.0,7.0,44,0.00,,,0.00,Wunderground v.1.15,2014-01-17 19:14:00,
2014-01-17 14:20:00,52.6,32.4,29.86,SSE,165,3.0,4.0,46,0.00,,,0.00,Wunderground v.1.15,2014-01-17 19:20:00,
2014-01-17 14:25:00,52.4,31.1,29.87,South,172,3.0,6.0,44,0.00,,,0.00,Wunderground v.1.15,2014-01-17 19:25:00,
2014-01-17 14:31:00,52.3,32.1,29.86,SSW,205,4.0,7.0,46,0.00,,,0.00,Wunderground v.1.15,2014-01-17 19:31:00,
2014-01-17 14:37:00,52.4,31.1,29.86,WNW,288,4.0,9.0,44,0.00,,,0.00,Wunderground v.1.15,2014-01-17 19:37:00,
2014-01-17 14:43:00,52.6,30.1,29.86,SW,215,4.0,10.0,42,0.00,,,0.00,Wunderground v.1.15,2014-01-17 19:43:00,
2014-01-17 14:48:00,52.7,30.2,29.86,WSW,248,4.0,10.0,42,0.00,,,0.00,Wunderground v.1.15,2014-01-17 19:48:00,
2014-01-17 14:54:00,52.7,29.6,29.86,SW,236,4.0,6.0,41,0.00,,,0.00,Wunderground v.1.15,2014-01-17 19:54:00,
2014-01-17 14:59:00,52.6,28.9,29.86,West,263,4.0,8.0,40,0.00,,,0.00,Wunderground v.1.15,2014-01-17 19:59:00,
2014-01-17 15:05:00,52.8,29.1,29.86,South,190,3.0,8.0,40,0.00,,,0.00,Wunderground v.1.15,2014-01-17 20:05:00,
2014-01-17 15:11:00,53.3,28.3,29.86,South,182,4.0,8.0,38,0.00,,,0.00,Wunderground v.1.15,2014-01-17 20:11:00,
2014-01-17 15:16:00,53.7,28.0,29.85,West,276,5.0,8.0,37,0.00,,,0.00,Wunderground v.1.15,2014-01-17 20:16:00,
2014-01-17 15:21:00,53.3,27.0,29.85,SSW,192,6.0,9.0,36,0.00,,,0.00,Wunderground v.1.15,2014-01-17 20:21:00,
2014-01-17 15:27:00,53.5,27.8,29.85,WSW,237,5.0,9.0,37,0.00,,,0.00,Wunderground v.1.15,2014-01-17 20:27:00,
2014-01-17 15:33:00,53.7,26.7,29.85,SW,222,5.0,7.0,35,0.00,,,0.00,Wunderground v.1.15,2014-01-17 20:33:00,
2014-01-17 15:39:00,53.9,27.5,29.85,NNE,31,5.0,9.0,36,0.00,,,0.00,Wunderground v.1.15,2014-01-17 20:39:00,
2014-01-17 15:45:00,53.9,28.2,29.86,WNW,301,5.0,9.0,37,0.00,,,0.00,Wunderground v.1.15,2014-01-17 20:45:00,
2014-01-17 15:51:00,53.9,28.2,29.86,SW,218,5.0,5.0,37,0.00,,,0.00,Wunderground v.1.15,2014-01-17 20:51:00,
2014-01-17 15:56:00,53.8,28.1,29.86,SW,215,4.0,5.0,37,0.00,,,0.00,Wunderground v.1.15,2014-01-17 20:56:00,
2014-01-17 16:01:00,53.3,28.3,29.86,SSE,160,3.0,6.0,38,0.00,,,0.00,Wunderground v.1.15,2014-01-17 21:01:00,
2014-01-17 16:07:00,52.7,27.8,29.86,SW,228,5.0,10.0,38,0.00,,,0.00,Wunderground v.1.15,2014-01-17 21:07:00,
2014-01-17 16:13:00,52.4,28.1,29.86,South,182,6.0,9.0,39,0.00,,,0.00,Wunderground v.1.15,2014-01-17 21:13:00,
2014-01-17 16:19:00,52.3,28.7,29.86,WSW,246,5.0,10.0,40,0.00,,,0.00,Wunderground v.1.15,2014-01-17 21:19:00,
2014-01-17 16:25:00,52.8,29.1,29.86,ESE,105,5.0,7.0,40,0.00,,,0.00,Wunderground v.1.15,2014-01-17 21:25:00,
2014-01-17 16:30:00,53.1,29.4,29.86,West,272,4.0,4.0,40,0.00,,,0.00,Wunderground v.1.15,2014-01-17 21:30:00,
2014-01-17 16:36:00,53.0,29.3,29.85,South,176,4.0,7.0,40,0.00,,,0.00,Wunderground v.1.15,2014-01-17 21:36:00,
2014-01-17 16:42:00,52.5,28.2,29.86,SSW,194,5.0,7.0,39,0.00,,,0.00,Wunderground v.1.15,2014-01-17 21:42:00,
2014-01-17 16:48:00,52.0,27.8,29.86,ENE,67,5.0,11.0,39,0.00,,,0.00,Wunderground v.1.15,2014-01-17 21:48:00,
2014-01-17 16:53:00,51.8,28.2,29.86,WSW,239,5.0,6.0,40,0.00,,,0.00,Wunderground v.1.15,2014-01-17 21:53:00,
2014-01-17 16:59:00,51.7,28.1,29.86,NW,306,4.0,9.0,40,0.00,,,0.00,Wunderground v.1.15,2014-01-17 21:59:00,
2014-01-17 17:04:00,51.6,28.6,29.86,NW,312,5.0,6.0,41,0.00,,,0.00,Wunderground v.1.15,2014-01-17 22:04:00,
2014-01-17 17:10:00,51.5,28.6,29.86,SE,144,4.0,4.0,41,0.00,,,0.00,Wunderground v.1.15,2014-01-17 22:10:00,
2014-01-17 17:15:00,51.3,28.4,29.86,SE,142,3.0,5.0,41,0.00,,,0.00,Wunderground v.1.15,2014-01-17 22:15:00,
2014-01-17 17:21:00,51.2,28.3,29.86,NNW,333,3.0,3.0,41,0.00,,,0.00,Wunderground v.1.15,2014-01-17 22:21:00,
2014-01-17 17:27:00,51.0,28.1,29.86,ENE,65,3.0,5.0,41,0.00,,,0.00,Wunderground v.1.15,2014-01-17 22:27:00,
2014-01-17 17:32:00,50.8,27.9,29.86,WSW,237,3.0,5.0,41,0.00,,,0.00,Wunderground v.1.15,2014-01-17 22:32:00,
2014-01-17 17:38:00,50.5,27.7,29.86,West,274,2.0,5.0,41,0.00,,,0.00,Wunderground v.1.15,2014-01-17 22:38:00,
2014-01-17 17:44:00,50.2,28.0,29.87,WSW,254,2.0,4.0,42,0.00,,,0.00,Wunderground v.1.15,2014-01-17 22:44:00,
2014-01-17 17:50:00,49.9,27.7,29.87,West,266,2.0,2.0,42,0.00,,,0.00,Wunderground v.1.15,2014-01-17 22:50:00,
2014-01-17 17:56:00,49.6,28.0,29.87,SSW,211,1.0,4.0,43,0.00,,,0.00,Wunderground v.1.15,2014-01-17 22:56:00,
2014-01-17 18:02:00,49.2,27.6,29.87,WSW,251,1.0,2.0,43,0.00,,,0.00,Wunderground v.1.15,2014-01-17 23:02:00,
2014-01-17 18:08:00,49.0,28.0,29.87,SW,227,1.0,3.0,44,0.00,,,0.00,Wunderground v.1.15,2014-01-17 23:08:00,
2014-01-17 18:13:00,48.7,27.7,29.87,WSW,247,1.0,2.0,44,0.00,,,0.00,Wunderground v.1.15,2014-01-17 23:13:00,
2014-01-17 18:19:00,48.5,28.1,29.87,West,261,1.0,2.0,45,0.00,,,0.00,Wunderground v.1.15,2014-01-17 23:19:00,
2014-01-17 18:25:00,48.2,27.8,29.87,SW,229,0.0,1.0,45,0.00,,,0.00,Wunderground v.1.15,2014-01-17 23:25:00,
2014-01-17 18:31:00,47.9,28.1,29.87,SW,225,0.0,2.0,46,0.00,,,0.00,Wunderground v.1.15,2014-01-17 23:31:00,
2014-01-17 18:36:00,47.7,28.4,29.87,SW,215,0.0,2.0,47,0.00,,,0.00,Wunderground v.1.15,2014-01-17 23:36:00,
2014-01-17 18:42:00,47.3,28.6,29.87,SSW,210,0.0,0.0,48,0.00,,,0.00,Wunderground v.1.15,2014-01-17 23:42:00,
2014-01-17 18:48:00,46.8,28.6,29.87,SSW,208,0.0,1.0,49,0.00,,,0.00,Wunderground v.1.15,2014-01-17 23:48:00,
2014-01-17 18:53:00,46.6,28.9,29.87,SSW,192,0.0,3.0,50,0.00,,,0.00,Wunderground v.1.15,2014-01-17 23:53:00,
2014-01-17 18:59:00,46.5,28.3,29.87,SSW,192,0.0,3.0,49,0.00,,,0.00,Wunderground v.1.15,2014-01-17 23:59:00,
2014-01-17 19:04:00,46.5,28.8,29.87,SSW,192,0.0,0.0,50,0.00,,,0.00,Wunderground v.1.15,2014-01-18 00:04:00,
2014-01-17 19:09:00,46.3,28.7,29.87,SSW,192,0.0,0.0,50,0.00,,,0.00,Wunderground v.1.15,2014-01-18 00:09:00,
2014-01-17 19:15:00,45.9,29.2,29.87,SSW,192,0.0,0.0,52,0.00,,,0.00,Wunderground v.1.15,2014-01-18 00:15:00,
2014-01-17 19:20:00,45.5,28.9,29.88,SSW,192,0.0,0.0,52,0.00,,,0.00,Wunderground v.1.15,2014-01-18 00:20:00,
2014-01-17 19:26:00,45.0,28.4,29.87,SSW,192,0.0,0.0,52,0.00,,,0.00,Wunderground v.1.15,2014-01-18 00:26:00,
2014-01-17 19:31:00,44.5,28.9,29.87,SSW,192,0.0,0.0,54,0.00,,,0.00,Wunderground v.1.15,2014-01-18 00:31:00,
2014-01-17 19:37:00,44.0,28.4,29.87,SSW,192,0.0,0.0,54,0.00,,,0.00,Wunderground v.1.15,2014-01-18 00:37:00,
2014-01-17 19:43:00,43.7,28.1,29.87,SSW,192,0.0,0.0,54,0.00,,,0.00,Wunderground v.1.15,2014-01-18 00:43:00,
2014-01-17 19:48:00,43.5,28.4,29.87,SSW,192,0.0,0.0,55,0.00,,,0.00,Wunderground v.1.15,2014-01-18 00:48:00,
2014-01-17 19:54:00,43.3,28.6,29.87,SSW,192,0.0,0.0,56,0.00,,,0.00,Wunderground v.1.15,2014-01-18 00:54:00,
2014-01-17 19:59:00,43.2,28.5,29.87,SSW,192,0.0,0.0,56,0.00,,,0.00,Wunderground v.1.15,2014-01-18 00:59:00,
2014-01-17 20:04:00,43.3,29.1,29.87,SSW,192,0.0,0.0,57,0.00,,,0.00,Wunderground v.1.15,2014-01-18 01:04:00,
2014-01-17 20:09:00,43.4,29.6,29.87,SSW,192,0.0,0.0,58,0.00,,,0.00,Wunderground v.1.15,2014-01-18 01:09:00,
2014-01-17 20:15:00,43.5,30.1,29.87,SSW,196,0.0,0.0,59,0.00,,,0.00,Wunderground v.1.15,2014-01-18 01:15:00,
2014-01-17 20:21:00,43.8,30.8,29.86,SW,214,0.0,0.0,60,0.00,,,0.00,Wunderground v.1.15,2014-01-18 01:21:00,
2014-01-17 20:26:00,43.9,30.9,29.86,SSW,213,0.0,0.0,60,0.00,,,0.00,Wunderground v.1.15,2014-01-18 01:26:00,
2014-01-17 20:32:00,43.8,30.4,29.87,SSW,213,0.0,0.0,59,0.00,,,0.00,Wunderground v.1.15,2014-01-18 01:32:00,
2014-01-17 20:38:00,43.7,30.7,29.87,SW,214,0.0,0.0,60,0.00,,,0.00,Wunderground v.1.15,2014-01-18 01:38:00,
2014-01-17 20:43:00,43.6,30.6,29.87,SW,221,0.0,1.0,60,0.00,,,0.00,Wunderground v.1.15,2014-01-18 01:43:00,
2014-01-17 20:49:00,43.6,30.6,29.88,NNW,327,0.0,2.0,60,0.00,,,0.00,Wunderground v.1.15,2014-01-18 01:49:00,
2014-01-17 20:54:00,44.5,29.8,29.89,NNW,329,2.0,4.0,56,0.00,,,0.00,Wunderground v.1.15,2014-01-18 01:54:00,
2014-01-17 21:00:00,46.2,26.0,29.88,WSW,256,6.0,6.0,45,0.00,,,0.00,Wunderground v.1.15,2014-01-18 02:00:00,
2014-01-17 21:06:00,46.5,25.2,29.88,West,271,6.0,6.0,43,0.00,,,0.00,Wunderground v.1.15,2014-01-18 02:06:00,
2014-01-17 21:11:00,46.5,25.2,29.88,SSE,160,3.0,5.0,43,0.00,,,0.00,Wunderground v.1.15,2014-01-18 02:11:00,
2014-01-17 21:17:00,46.3,23.9,29.88,West,259,3.0,8.0,41,0.00,,,0.00,Wunderground v.1.15,2014-01-18 02:17:00,
2014-01-17 21:22:00,46.3,23.3,29.88,West,260,4.0,8.0,40,0.00,,,0.00,Wunderground v.1.15,2014-01-18 02:22:00,
2014-01-17 21:28:00,46.2,22.6,29.88,SSW,205,4.0,10.0,39,0.00,,,0.00,Wunderground v.1.15,2014-01-18 02:28:00,
2014-01-17 21:33:00,46.1,22.5,29.88,West,276,3.0,4.0,39,0.00,,,0.00,Wunderground v.1.15,2014-01-18 02:33:00,
2014-01-17 21:39:00,46.0,22.4,29.88,WNW,298,4.0,6.0,39,0.00,,,0.00,Wunderground v.1.15,2014-01-18 02:39:00,
2014-01-17 21:44:00,45.8,21.6,29.88,WSW,241,4.0,5.0,38,0.00,,,0.00,Wunderground v.1.15,2014-01-18 02:44:00,
2014-01-17 21:50:00,45.7,21.5,29.88,WSW,242,4.0,4.0,38,0.00,,,0.00,Wunderground v.1.15,2014-01-18 02:50:00,
2014-01-17 21:55:00,45.5,21.3,29.89,West,277,4.0,7.0,38,0.00,,,0.00,Wunderground v.1.15,2014-01-18 02:55:00,
2014-01-17 22:00:00,45.4,21.9,29.89,NNE,17,4.0,4.0,39,0.00,,,0.00,Wunderground v.1.15,2014-01-18 03:00:00,
2014-01-17 22:06:00,45.0,20.9,29.89,WSW,251,3.0,6.0,38,0.00,,,0.00,Wunderground v.1.15,2014-01-18 03:06:00,
2014-01-17 22:12:00,44.8,20.7,29.89,NW,306,3.0,3.0,38,0.00,,,0.00,Wunderground v.1.15,2014-01-18 03:12:00,
2014-01-17 22:17:00,44.6,19.9,29.89,NW,309,3.0,6.0,37,0.00,,,0.00,Wunderground v.1.15,2014-01-18 03:17:00,
2014-01-17 22:22:00,44.5,19.2,29.89,NW,315,3.0,4.0,36,0.00,,,0.00,Wunderground v.1.15,2014-01-18 03:22:00,
2014-01-17 22:28:00,44.4,19.1,29.89,NNW,340,4.0,8.0,36,0.00,,,0.00,Wunderground v.1.15,2014-01-18 03:28:00,
2014-01-17 22:33:00,44.4,19.1,29.89,NW,319,4.0,4.0,36,0.00,,,0.00,Wunderground v.1.15,2014-01-18 03:33:00,
2014-01-17 22:38:00,44.3,19.0,29.89,West,270,4.0,8.0,36,0.00,,,0.00,Wunderground v.1.15,2014-01-18 03:38:00,
2014-01-17 22:44:00,44.1,19.5,29.90,NNW,338,4.0,5.0,37,0.00,,,0.00,Wunderground v.1.15,2014-01-18 03:44:00,
2014-01-17 22:49:00,43.9,19.3,29.90,NW,320,4.0,6.0,37,0.00,,,0.00,Wunderground v.1.15,2014-01-18 03:49:00,
2014-01-17 22:55:00,43.6,19.6,29.90,WNW,290,3.0,4.0,38,0.00,,,0.00,Wunderground v.1.15,2014-01-18 03:55:00,
2014-01-17 23:00:00,43.3,19.4,29.91,WNW,301,2.0,2.0,38,0.00,,,0.00,Wunderground v.1.15,2014-01-18 04:00:00,
2014-01-17 23:06:00,43.0,19.7,29.90,NW,326,2.0,4.0,39,0.00,,,0.00,Wunderground v.1.15,2014-01-18 04:06:00,
2014-01-17 23:12:00,42.8,19.5,29.91,NW,312,2.0,3.0,39,0.00,,,0.00,Wunderground v.1.15,2014-01-18 04:12:00,
2014-01-17 23:18:00,42.5,19.8,29.90,NW,322,2.0,3.0,40,0.00,,,0.00,Wunderground v.1.15,2014-01-18 04:18:00,
2014-01-17 23:23:00,42.2,20.7,29.90,NW,323,3.0,5.0,42,0.00,,,0.00,Wunderground v.1.15,2014-01-18 04:23:00,
2014-01-17 23:29:00,41.9,21.0,29.91,NW,306,3.0,5.0,43,0.00,,,0.00,Wunderground v.1.15,2014-01-18 04:29:00,
2014-01-17 23:34:00,41.5,22.2,29.91,North,351,3.0,5.0,46,0.00,,,0.00,Wunderground v.1.15,2014-01-18 04:34:00,
2014-01-17 23:40:00,41.1,22.9,29.91,WNW,293,4.0,4.0,48,0.00,,,0.00,Wunderground v.1.15,2014-01-18 04:40:00,
2014-01-17 23:46:00,40.8,23.1,29.90,NW,312,3.0,5.0,49,0.00,,,0.00,Wunderground v.1.15,2014-01-18 04:46:00,
2014-01-17 23:52:00,40.5,23.8,29.90,NNW,332,3.0,3.0,51,0.00,,,0.00,Wunderground v.1.15,2014-01-18 04:52:00,
2014-01-17 23:58:00,40.4,24.6,29.90,NW,322,4.0,7.0,53,0.00,,,0.00,Wunderground v.1.15,2014-01-18 04:58:00,